Regional Weather Roundup
Issued by NWS Albany, NY

Home | Current Version | Previous Version | Graphics & Text | Print | Product List | Glossary Off
Versions: 1 2 3 4 5 6 7 8 9 10 11 12 13 14 15 16 17 18 19 20 21 22 23 24 25 26 27 28 29 30 31 32 33 34 35 36 37 38 39 40 41 42 43 44 45 46 47 48 49 50

000
ASUS41 KALY 310210
RWRALY

NEW YORK STATE HOURLY WEATHER ROUNDUP
NATIONAL WEATHER SERVICE ALBANY NY
1000 PM EDT WED JUL 30 2014

NOTE: "FAIR" INDICATES FEW OR NO CLOUDS BELOW 12,000 FEET WITH NO
SIGNIFICANT WEATHER AND/OR NO OBSTRUCTIONS TO VISIBILITY.

NYZ032-033-038>043-046>054-057>066-NYZ062>081-310300-
EAST


CITY           SKY/WX    TMP DP  RH WIND       PRES   REMARKS
ALBANY         MOCLDY    66  55  67 CALM      30.01R
GLENS FALLS    CLEAR     61  57  87 CALM      30.00S
POUGHKEEPSIE   CLEAR     64  58  80 CALM      30.03R
NEWBURGH       CLEAR     75  57  53 CALM      30.05R
MONTGOMERY     CLEAR     62  57  83 CALM      30.04R
WHITE PLAINS   CLEAR     65  58  78 CALM      30.05R
ISLIP          CLEAR     72  58  61 SW8       30.04R
NEW YORK CITY  PTCLDY    74  57  55 S7        30.04R
CENTRAL PARK   CLEAR     72  55  55 CALM      30.07R
$$

NYZ005>009-017-018-044>046-055-056-310300-
CENTRAL


CITY           SKY/WX    TMP DP  RH WIND       PRES   REMARKS
FULTON         MOCLDY    60  57  89 CALM      30.00R
SYRACUSE       CLOUDY    61  57  87 CALM      30.01R
ROME           LGT RAIN  59  58  96 E5        30.03S
ELMIRA         PTCLDY    58  56  93 CALM      30.04R
BINGHAMTON     CLOUDY    62  56  80 W6        30.06R
MONTICELLO     CLEAR     59  55  88 CALM      30.08R
$$

NYZ026>034-041>043-310300-
NORTH


CITY           SKY/WX    TMP DP  RH WIND       PRES   REMARKS
WATERTOWN      MOCLDY    63  54  72 SW3       29.99R
FORT DRUM      NOT AVBL
MASSENA        MOCLDY    61  59  93 NW3       29.98R
SARANAC LAKE   MOCLDY    55  53  93 CALM      30.00R
PLATTSBURGH    CLEAR     60  57  89 CALM      29.97R
$$

NYZ001>004-010>016-019>021-310300-
WEST


CITY           SKY/WX    TMP DP  RH WIND       PRES   REMARKS
NIAGARA FALLS  MOCLDY    62  58  86 S6        29.98R
BUFFALO        MOCLDY    66  57  72 SW7       29.99R
DUNKIRK        CLEAR     61  56  83 S6        30.01R
JAMESTOWN      MOCLDY    55  54  94 S5        30.05R VSB 1
WELLSVILLE     CLEAR     59  54  83 SW8       30.06S
ROCHESTER      MOCLDY    61  58  90 SW6       29.99R
PENN YAN       CLOUDY    59  57  93 S3        30.03R
$$

             KEY
       WCI = WIND CHILL INDEX
       VSB = VISIBILITY
       HX  = HEAT INDEX
$$



USA.gov is the U.S. government's official web portal to all federal, state and local government web resources and services.